STARLINK-31332, 59566

Orbit data source: Space-Track

STARLINK-31332, 59566 is a payload satellite owned by SpaceX/Seattle (US) in LEO that was launched on Tue, 23 Apr 2024 UTC via an FALCON 9 launch vehicle from the Air Force Eastern Test Range (AFETR). Payload-class satellites include a variety of spacecraft equipped with specific instruments for various scientific and technological missions. These include communications satellites like Starlink; space stations such as the ISS; scientific satellites like the Hubble; Earth observation satellites from companies like Planet Labs, Umbra, and HawkEye 360; GPS; miniature CubeSats for education and research; and military/defense satellites.

Loading next visibility...
Identifier
59566, 2024-076C
Orbit
LEO
Country
Flag of USUS
Related business
Manufacturer
SpaceX/Seattle
Mission
Operational Commercial Communications
Bus & Motor
STARLINK V2M, Unknown motor
Mass
730 kg wet, ~700 kg dry
Launch date (UTC)
2024-04-23 (2 years ago)
Launch vehicle
FALCON 9
Launch site
Air Force Eastern Test Range (AFETR)
Object type
Payload
Rocket body
Debris
Shape & HBR
Box + 2 Pan, 17.7 m
Radar Cross Section
33.884 m², Large (>1 m²)

Expand to show TLE details & history
Last TLE update: 4 hours ago

TLE from 4 hours ago
0 STARLINK-31332
1 59566U 24076C   26125.82671998  .00000580  00000-0  30577-4 0  9995
2 59566  43.0030  46.0951 0000297 253.6165 106.4654 15.27578563115242
Epoch: 2026-05-05T19:50Z
TLE epoch observation values (Epoch: 2026-05-05T19:50:28.606Z)
Latitude
-0.00001°
Longitude
-115.22009°
Altitude
482.887 km
Speed
7.626 km/s
True Right ascension
03h 04m 22s
True Declination
0° 00' 00"
Sunlit
Object was in daylight at epoch
Visualization orbit readout
Latitude
Unknown
Longitude
Unknown
Altitude
Unknown
Speed
Unknown
Apparent Right ascension
Unknown
Apparent Declination
Unknown
Sunlit
N/A
Visualization observer readout
Local Sidereal Time
07:49:34
Azimuth
Unknown
Elevation
Unknown
Doppler factor
Unknown
Orbital elements
Apogee altitude
485.202 km
Perigee altitude
484.794 km
Semi-major axis
6,863.135 km
Eccentricity
0.00003
Inclination
43.003°
RAAN
46.0951°
Arg. of periapsis
253.6165°
True anomaly
106.46866°
Mean anomaly
106.4654°
Eccentric anomaly
106.46703°
Mean motion
3.81733 °/min
Orbital period
94.31 mins
BSTAR
0.000030577
Loading maneuver chart data...
Computing Atmospheric mass density...
Loading historical data...
Loading historical data...
Loading historical data...
Loading historical data...
Loading historical data...
Loading historical data...
Loading historical data...

Documentation

Showing up to 5 results
|